Location: College Rock
(37.2713°N, 119.1740°W)
Time: 04:33:44
(UTC+00:00)

Cosmos 1892 Rocket - Pass Details

Date: 29 October 2020
Orbit: 607 x 632 km, 82.5° (Epoch: 23 November)

Event Time Altitude Azimuth Distance (km) Brightness Sun altitude
Rises 12:15:39 0° 174° (S) 2,852 7.0 -25.0°
Reaches altitude 10° 12:17:53 10° 169° (S) 1,954 6.2 -24.6°
Maximum altitude 12:22:05 51° 93° (E) 768 4.3 -23.7°
Drops below altitude 10° 12:26:20 10° 18° (NNE) 1,981 6.3 -22.9°
Sets 12:28:36 0° 13° (NNE) 2,895 7.2 -22.4°
